Regional Weather Roundup
Issued by NWS

Home | Current Version | Previous Version | Text Only | Print | Product List | Glossary Off
Versions: 1 2 3 4 5 6 7 8 9 10 11 12 13 14 15 16 17 18 19 20 21 22 23 24 25 26 27 28 29 30 31 32 33 34 35 36 37 38 39 40 41 42 43 44 45 46 47 48 49 50

000
ASUS43 KIND 221809
RWRIN

WEATHER ROUNDUP FOR INDIANA
NATIONAL WEATHER SERVICE INDIANAPOLIS IN
100 PM EST MON DEC 22 2014

NOTE: "FAIR" INDICATES FEW OR NO CLOUDS BELOW 12,000 FEET WITH NO
SIGNIFICANT WEATHER AND/OR OBSTRUCTIONS TO VISIBILITY.

* - STATION DOES NOT REPORT WEATHER SUCH AS PRECIPITATION OR FOG.

+ - STATION NOT QUALITY CONTROLLED BY THE NATIONAL WEATHER SERVICE.
    USE DATA WITH CAUTION...ESPECIALLY DEWPOINT AND RELATIVE
    HUMIDITY OBSERVATIONS.

INZ001>003-010>013-019-020-221900-
NORTHWEST INDIANA

CITY           SKY/WX    TMP DP  RH WIND       PRES   REMARKS
GARY /AIRPORT/ CLOUDY    37  30  75 SE9       29.83  FOG
KNOX *+        CLOUDY    36  28  72 SE13      29.85F
LA PORTE +     DRIZZLE   37  33  85 SE10      29.86F
6HR MIN TEMP:  31; 6HR MAX TEMP:  37;

MICHIGAN CITY+ CLOUDY    36  28  75 SE7       29.84F
MONTICELLO +   LGT RAIN  36  34  92 SE7       29.84F
RENSSELAER +   LGT RAIN  36  36 100 E12       29.82F
VALPARAISO     CLOUDY    35  31  85 SE14      29.83F WCI  26
6HR MIN TEMP:  29; 6HR MAX TEMP:  35; 6HR PCP: TRACE;


$$

LMZ046-743>745-221900-
SOUTHERN LAKE MICHIGAN

STATION/POSITION TIME  TEMP WIND        PRES
                       AIR  DIR/SP/G
                 (UTC) (F)  (DEG/KT/KT) (MB)

$$

INZ004-005-014>016-021>024-221900-
NORTH CENTRAL INDIANA

CITY           SKY/WX    TMP DP  RH WIND       PRES   REMARKS
ELKHART        CLOUDY    36  27  69 SE9       29.90F HAZE
GOSHEN         LGT RAIN  35  29  78 SE10      29.89F WCI  27
6HR MIN TEMP:  26; 6HR MAX TEMP:  35; 6HR PCP: TRACE;

LOGANSPORT +   DRIZZLE   36  32  87 E8        29.86F
ROCHESTER +    CLOUDY    37  34  87 SE8       29.87F HAZE
SOUTH BEND     CLOUDY    35  29  78 SE12      29.88  HAZE    WCI  27
6HR MIN TEMP:  29; 6HR MAX TEMP:  35;

WARSAW +       CLOUDY    34  30  86 E9        29.88F HAZE    WCI  26

$$

INZ006>009-017-018-025>027-221900-
NORTHEAST INDIANA

CITY           SKY/WX    TMP DP  RH WIND       PRES   REMARKS
ANGOLA *+      CLOUDY    34  27  75 SE8       29.92F WCI  27
AUBURN +       CLOUDY    34  28  80 E9        29.92F HAZE    WCI  26
FORT WAYNE     CLOUDY    35  30  82 E8        29.91F WCI  29
6HR MIN TEMP:  23; 6HR MAX TEMP:  35;

HUNTINGTON +   CLOUDY    35  32  88 E6        29.90F WCI  30
6HR MIN TEMP:  26; 6HR MAX TEMP:  35;


$$

INZ028-029-035-036-043>045-051>053-221900-
WEST CENTRAL INDIANA

CITY           SKY/WX    TMP DP  RH WIND       PRES   REMARKS
GREENCASTLE +  CLOUDY    37  32  81 SE7       29.83F
LAFAYETTE      LGT RAIN  38  36  92 E9        29.82F FOG
6HR MIN TEMP:  31; 6HR MAX TEMP:  38; 6HR PCP:  0.01;

TERRE HAUTE    CLOUDY    43  39  86 SE12      29.81F
6HR MIN TEMP:  34; 6HR MAX TEMP:  43; 6HR PCP:  0.01;


$$

INZ030>032-037>040-046>048-054>057-064-065-221900-
CENTRAL INDIANA

CITY           SKY/WX    TMP DP  RH WIND       PRES   REMARKS
ANDERSON       CLOUDY    39  32  75 E12       29.88F
CP ATTERBURY + CLOUDY    43  36  75 MISG      29.86F
COLUMBUS       MOSUNNY   45  39  81 E7        29.86
FRANKFORT +    DRIZZLE   38  38 100 E9        29.85F
INDIANAPOLIS   CLOUDY    39  33  79 SE12      29.84F
6HR MIN TEMP:  31; 6HR MAX TEMP:  39; 6HR PCP: TRACE;

-EAGLE CREEK   CLOUDY    40  34  79 SE7       29.84F
6HR MIN TEMP:  31; 6HR MAX TEMP:  40;

KOKOMO *+      CLOUDY    37  32  81 SE7       29.87F
MARION +       CLOUDY    37  32  82 SE8       29.88F
MT COMFORT *+  CLOUDY    39  30  70 SE8       29.87F
SHELBYVILLE    CLOUDY    43  35  73 E8        29.85F
6HR MIN TEMP:  34; 6HR MAX TEMP:  43;

ZIONSVILLE +   CLOUDY    39  33  80 SE8       29.85F
6HR MIN TEMP:  31; 6HR MAX TEMP:  39;


$$

INZ033-034-041-042-049-050-058-059-221900-
EAST CENTRAL INDIANA

CITY           SKY/WX    TMP DP  RH WIND       PRES   REMARKS
MUNCIE         CLOUDY    40  33  76 SE9       29.89F
6HR MIN TEMP:  32; 6HR MAX TEMP:  40;


$$

INZ060-061-067>069-081>083-085>088-221900-
SOUTHWEST INDIANA

CITY           SKY/WX    TMP DP  RH WIND       PRES   REMARKS
EVANSVILLE     CLOUDY    51  44  77 SE10      29.80F
6HR MIN TEMP:  39; 6HR MAX TEMP:  51;

HUNTINGBURG *+ CLOUDY    48  41  76 SE12      29.82F
6HR MIN TEMP:  39; 6HR MAX TEMP:  48;

WASHINGTON +   CLOUDY    46  40  81 SE10      29.81F
6HR MIN TEMP:  35; 6HR MAX TEMP:  46;


$$

INZ062-063-066-070>080-084-089>092-221900-
SOUTH CENTRAL AND SOUTHEAST INDIANA

CITY           SKY/WX    TMP DP  RH WIND       PRES   REMARKS
BLOOMINGTON    CLOUDY    43  37  79 SE9       29.83F
6HR MIN TEMP:  33; 6HR MAX TEMP:  42; 6HR PCP: TRACE;


$$



USA.gov is the U.S. government's official web portal to all federal, state and local government web resources and services.